Regional Weather Roundup
Issued by NWS

Home | Current Version | Previous Version | Graphics & Text | Print | Product List | Glossary On
Versions: 1 2 3 4 5 6 7 8 9 10 11 12 13 14 15 16 17 18 19 20 21 22 23 24 25 26 27 28 29 30 31 32 33 34 35 36 37 38 39 40 41 42 43 44 45 46 47 48 49 50
000
ASUS43 KDTX 280101
RWRMI
MICHIGAN HOURLY REGIONAL WEATHER ROUNDUP
NATIONAL WEATHER SERVICE DETROIT/PONTIAC MI
900 PM EDT THU JUL 27 2017

NOTE: "FAIR" INDICATES FEW OR NO CLOUDS BELOW 12,000 FEET WITH NO
SIGNIFICANT WEATHER AND/OR OBSTRUCTION TO VISIBILITY.

MIZ047>049-052>055-059>063-066>070-074>076-081>083-280200-
SOUTHEAST LOWER MICHIGAN

CITY           SKY/WX    TMP DP  RH WIND       PRES   REMARKS
ADRIAN         PTCLDY    77  66  68 SE5       29.91R
ALMA           PTCLDY    70  61  73 NE7       29.96R
ANN ARBOR      CLEAR     75  64  68 N12       29.92R
BAD AXE        CLEAR     65  60  81 NE5       29.98S
CARO           CLEAR     68  60  75 CALM      29.96S
DETROIT CITY   CLEAR     75  59  57 NE9       29.92R
DETROIT        PTCLDY    77  64  64 NE13      29.92R
FLINT          CLEAR     72  63  73 E8        29.95R
GROSSE ILE     CLEAR     74  65  74 NE13      29.90R
HILLSDALE      CLOUDY    77  64  65 NE9       29.92R
HOWELL         CLEAR     72  63  73 NE3       29.95R

CITY           SKY/WX    TMP DP  RH WIND       PRES   REMARKS
JACKSON        PTCLDY    75  61  61 NE9       29.93R
LAMBERTVILLE   CLEAR     75  66  73 CALM      29.90R
LANSING        CLEAR     71  58  63 NE6       29.95R
LAPEER         FAIR      71  60  68 NE6       29.96R
MASON          CLEAR     72  64  74 NE6       29.94R
MONROE         MOCLDY    76  68  77 NE7       29.90R
MT. CLEMENS    PTCLDY    70  61  71 NE8       29.92R
PONTIAC        PTCLDY    73  62  68 NE8       29.94R
PORT HOPE        N/A     67  62  84 N7        29.97R
PORT HURON     CLEAR     68  63  83 N8        29.95R
TRI CITIES     CLEAR     70  62  76 NE8       29.97S
MIDLAND        FAIR      69  60  73 E7        29.96S
TROY           CLEAR     75  58  55 NE8       29.95S
SAGINAW HB     CLEAR     68  61  77 NE7       29.96S
$$
MIZ043>046-050>051-056>058-064>065-071>073-077>080-280200-
SOUTHWEST LOWER MICHIGAN

CITY           SKY/WX    TMP DP  RH WIND       PRES   REMARKS
BATTLE CREEK   CLEAR     77  65  66 NE10      29.93R
BENTON HARBOR  CLEAR     73  65  75 VRB6      29.91S
BIG RAPIDS     CLEAR     73  61  65 N13       29.96R
COLDWATER      CLOUDY    77  67  70 NE9       29.91S
FREMONT        FAIR      75  54  48 N7        29.95R
HOLLAND        CLEAR     76  62  62 E5        29.93R
GRAND RAPIDS   MOCLDY    75  62  64 E6        29.93S
IONIA          FAIR      74  60  61 E6        29.93S
KALAMAZOO      PTCLDY    78  64  61 NE6       29.92R
LUDINGTON      MOCLDY    68  60  75 N7        29.97R
MARSHALL       MOCLDY    76  66  70 NE3       29.93R
MOUNT PLEASANT MOCLDY    72  59  62 E8        29.96S
MUSKEGON       MOCLDY    79  56  45 N13       29.94R
SOUTH HAVEN    CLEAR     73  68  83 N3        29.92S
$$
MIZ016>042-280200-
NORTHERN LOWER MICHIGAN

CITY           SKY/WX    TMP DP  RH WIND       PRES   REMARKS
ALPENA         CLEAR     71  61  70 NW5       29.99S
BEAVER ISLAND  PTCLDY    66  55  67 N5        30.02S
BELLAIRE       CLEAR     69  53  55 CALM      30.00R
CADILLAC       CLEAR     70  57  62 N7        30.00R
CHARLEVOIX     CLEAR     68  58  69 N8        30.03S
FRANKFORT      CLEAR     69  63  80 N5        29.99F
GAYLORD        CLEAR     72  52  49 VRB5      30.01S
GRAYLING       CLEAR     70  56  61 N5        30.01R
HARBOR SPRINGS CLEAR     69  54  58 N8        29.99S
HOUGHTON LAKE  CLEAR     71  55  56 NE7       29.99R
MANISTEE       CLEAR     68  61  78 W5        29.98S
OSCODA         CLEAR     69  59  69 N5        29.97F
PELLSTON       CLEAR     69  56  62 NE6       30.00S
ROGERS CITY    CLEAR     69  62  78 NW5       30.00S
TRAVERSE CITY  MOCLDY    72  57  59 N10       29.99R
$$
MIZ007>008-015-280200-
EASTERN UPPER MICHIGAN

CITY           SKY/WX    TMP DP  RH WIND       PRES   REMARKS
KINROSS        CLOUDY    63  54  72 NW10      30.01S
MACKINAC ISLAN CLOUDY    66  56  71 N8        30.00F
NEWBERRY       CLOUDY    60  54  80 N3        30.03S
S. S. MARIE    CLOUDY    64  54  69 NW7       30.00F
MUNISING         N/A     63  58  83 N7        30.05F
$$
MIZ004>006-011>014-085-280200-
CENTRAL UPPER MICHIGAN

CITY           SKY/WX    TMP DP  RH WIND       PRES   REMARKS
MANISTIQUE     CLEAR     63  52  67 N8        30.03S
ESCANABA       CLEAR     68  52  56 N7        30.03S
MENOMINEE      PTCLDY    71  58  63 E13       30.03R
SAWYER-GWINN   CLEAR     64  54  68 NE9       30.06F
$$
MIZ001>003-009>011-084-280200-
WESTERN UPPER MICHIGAN

CITY           SKY/WX    TMP DP  RH WIND       PRES   REMARKS
HOUGHTON       CLOUDY    67  58  72 CALM      30.06S
COPPER HARBOR    N/A     64  55  72 CALM      30.05S
IRONWOOD       CLEAR     68  61  78 N5        30.08S
$$

ABBREVIATIONS USED IN REMARKS
   TC - TEMPERATURE IN CELSIUS
  WCI - WIND CHILL INDEX
   HX - HEAT INDEX
  VSB - VISIBILITY





USA.gov is the U.S. government's official web portal to all federal, state and local government web resources and services.